Crosby, ND

8:08 AM CST on December 09, 2019 (GMT -0600)
Crosby

Weather History for KD50 - November, 2019

Change the Weather History Date:

Friday, November 15, 2019

  Actual Average (WUND) Record (WUND)
Temperature  
Mean Temperature 37 °F -  
Max Temperature 46 °F - - (-1)
Min Temperature 28 °F - - (-1)
Degree Days  
Heating Degree Days 28    
Moisture  
Dew Point 33 °F    
Average Humidity 94    
Maximum Humidity 100    
Minimum Humidity 71    
Precipitation  
Precipitation 0.00 in - - ()
Sea Level Pressure  
Sea Level Pressure 29.96 in    
Wind  
Wind Speed 10 mph (SSE)    
Max Wind Speed 20 mph    
Max Gust Speed 23 mph    
Visibility 6 miles    
Events Fog    
Averages and records for this station are not official NWS values.
T = Trace of Precipitation, MM = Missing Value Source: NWS Daily Summary

Daily Weather History Graph

Daily Weather History Graph

Search for Another Location

Airport or City:

Astronomy

Nov. 15, 2019 Rise Set
Actual Time 8:02 AM CST 5:12 PM CST
Civil Twilight 7:27 AM CST 5:47 PM CST
Nautical Twilight 6:49 AM CST 6:25 PM CST
Astronomical Twilight 6:11 AM CST 7:03 PM CST
Moon 7:40 PM CST (11/15) 11:10 AM CST (11/15)
Length of Visible Light 10h 19m
Length of Day
9h 10m
Waning Gibbous, 90% of the Moon is Illuminated
Nov 15
Waning Gibbous
Nov 19
Last Quarter
Nov 26
New
Dec 4
First Quarter
Dec 11
Full

Hourly Weather History & Observations

Time (CST) Temp. Windchill Dew Point Humidity Pressure Visibility Wind Dir Wind Speed Gust Speed Precip Events Conditions
12:35 AM 28.4 °F 20.4 °F 28.4 °F 100% 30.10 in 0.5 mi ESE 8.1 mph - N/A Fog Light Freezing Fog
1:15 AM 28.4 °F 19.1 °F 28.4 °F 100% 30.10 in 0.5 mi ESE 10.4 mph - N/A   Overcast
1:35 AM 28.4 °F 21.2 °F 28.4 °F 100% 30.09 in 0.5 mi ESE 6.9 mph - N/A Fog Light Freezing Fog
1:55 AM 28.4 °F 19.7 °F 28.4 °F 100% 30.09 in 0.5 mi ESE 9.2 mph - N/A Fog Light Freezing Fog
2:15 AM 28.4 °F 20.4 °F 28.4 °F 100% 30.09 in 0.5 mi ESE 8.1 mph - N/A Fog Light Freezing Fog
2:35 AM 28.4 °F 19.1 °F 28.4 °F 100% 30.08 in 0.2 mi SE 10.4 mph - N/A Fog Light Freezing Fog
2:55 AM 28.4 °F 21.2 °F 28.4 °F 100% 30.08 in 0.5 mi SE 6.9 mph - N/A   Overcast
3:15 AM 28.4 °F 21.2 °F 28.4 °F 100% 30.08 in 0.8 mi SE 6.9 mph - N/A   Overcast
3:35 AM 28.4 °F 22.2 °F 28.4 °F 100% 30.08 in 0.8 mi ESE 5.8 mph - N/A   Overcast
3:55 AM 28.4 °F 20.4 °F 28.4 °F 100% 30.08 in 0.8 mi East 8.1 mph - N/A   Overcast
4:15 AM 28.4 °F 19.1 °F 28.4 °F 100% 30.07 in 1.0 mi East 10.4 mph - N/A   Overcast
4:35 AM 28.4 °F 20.4 °F 28.4 °F 100% 30.07 in 1.5 mi ESE 8.1 mph - N/A   Overcast
4:55 AM 28.4 °F 20.4 °F 28.4 °F 100% 30.06 in 1.5 mi ESE 8.1 mph - N/A   Overcast
5:15 AM 28.4 °F 19.7 °F 28.4 °F 100% 30.06 in 2.0 mi ESE 9.2 mph - N/A   Overcast
5:35 AM 28.4 °F 19.7 °F 28.4 °F 100% 30.05 in 1.5 mi ESE 9.2 mph - N/A   Overcast
5:55 AM 28.4 °F 19.1 °F 28.4 °F 100% 30.05 in 2.0 mi ESE 10.4 mph - N/A   Overcast
6:15 AM 28.4 °F 21.2 °F 28.4 °F 100% 30.05 in 3.0 mi SE 6.9 mph - N/A   Overcast
6:35 AM 28.4 °F 20.4 °F 28.4 °F 100% 30.04 in 4.0 mi SE 8.1 mph - N/A   Overcast
6:55 AM 28.4 °F 21.2 °F 28.4 °F 100% 30.04 in 4.0 mi SE 6.9 mph - N/A   Overcast
7:15 AM 28.4 °F 21.2 °F 28.4 °F 100% 30.04 in 4.0 mi ESE 6.9 mph - N/A   Overcast
7:35 AM 28.4 °F 20.4 °F 28.4 °F 100% 30.04 in 4.0 mi SE 8.1 mph - N/A   Overcast
7:55 AM 28.4 °F 20.4 °F 28.4 °F 100% 30.03 in 4.0 mi SE 8.1 mph - N/A   Overcast
8:15 AM 28.4 °F 22.2 °F 28.4 °F 100% 30.04 in 3.0 mi ESE 5.8 mph - N/A   Overcast
8:35 AM 28.4 °F 20.4 °F 28.4 °F 100% 30.04 in 3.0 mi ESE 8.1 mph - N/A   Overcast
8:55 AM 28.4 °F 20.4 °F 28.4 °F 100% 30.04 in 4.0 mi SE 8.1 mph - N/A   Overcast
9:15 AM 28.4 °F 20.4 °F 28.4 °F 100% 30.04 in 4.0 mi SSE 8.1 mph - N/A   Overcast
9:35 AM 28.4 °F 18.5 °F 28.4 °F 100% 30.03 in 4.0 mi SSE 11.5 mph - N/A   Overcast
9:55 AM 30.2 °F 21.9 °F 30.2 °F 100% 30.03 in 3.0 mi SSE 9.2 mph - N/A   Overcast
10:15 AM 30.2 °F 21.3 °F 30.2 °F 100% 30.03 in 5.0 mi SSE 10.4 mph - N/A   Overcast
10:35 AM 30.2 °F 21.3 °F 30.2 °F 100% 30.03 in 5.0 mi SSE 10.4 mph - N/A   Overcast
10:55 AM 32.0 °F 24.2 °F 32.0 °F 100% 30.02 in 6.0 mi SSE 9.2 mph - N/A   Overcast
11:15 AM 32.0 °F 24.2 °F 32.0 °F 100% 30.02 in 7.0 mi South 9.2 mph - N/A   Overcast
11:35 AM 33.8 °F 25.8 °F 33.8 °F 100% 30.02 in 9.0 mi SSE 10.4 mph - N/A   Mostly Cloudy
11:55 AM 35.6 °F 28.0 °F 35.6 °F 100% 30.01 in 10.0 mi SSE 10.4 mph - N/A   Clear
12:15 PM 37.4 °F 30.3 °F 35.6 °F 93% 30.00 in 10.0 mi SSE 10.4 mph - N/A   Clear
12:35 PM 37.4 °F 31.4 °F 35.6 °F 93% 29.99 in 10.0 mi SSE 8.1 mph - N/A   Clear
12:55 PM 39.2 °F 33.0 °F 35.6 °F 87% 29.99 in 9.0 mi SE 9.2 mph - N/A   Clear
1:15 PM 41.0 °F 34.3 °F 35.6 °F 81% 29.98 in 10.0 mi SE 11.5 mph - N/A   Clear
1:35 PM 42.8 °F 35.8 °F 35.6 °F 76% 29.96 in 10.0 mi SSE 13.8 mph - N/A   Clear
1:55 PM 42.8 °F 36.2 °F 35.6 °F 76% 29.95 in 10.0 mi SSE 12.7 mph - N/A   Clear
2:15 PM 42.8 °F 36.6 °F 35.6 °F 76% 29.94 in 10.0 mi SSE 11.5 mph - N/A   Clear
2:35 PM 44.6 °F 38.8 °F 35.6 °F 71% 29.93 in 10.0 mi South 11.5 mph - N/A   Clear
2:55 PM 44.6 °F 39.7 °F 35.6 °F 71% 29.93 in 10.0 mi SSE 9.2 mph - N/A   Partly Cloudy
3:15 PM 46.4 °F 41.1 °F 37.4 °F 71% 29.92 in 10.0 mi SSE 11.5 mph - N/A   Partly Cloudy
3:35 PM 44.6 °F 37.8 °F 35.6 °F 71% 29.91 in 10.0 mi SSE 15.0 mph - N/A   Clear
4:15 PM 42.8 °F 38.0 °F 37.4 °F 81% 29.91 in 9.0 mi SSE 8.1 mph - N/A   Clear
4:55 PM 41.0 °F 35.8 °F 37.4 °F 87% 29.89 in 10.0 mi SSE 8.1 mph - N/A   Clear
5:15 PM 39.2 °F 34.2 °F 35.6 °F 87% 29.89 in 9.0 mi SSE 6.9 mph - N/A   Partly Cloudy
5:35 PM 39.2 °F 35.0 °F 35.6 °F 87% 29.88 in 10.0 mi South 5.8 mph - N/A   Clear
5:55 PM 37.4 °F 30.8 °F 37.4 °F 100% 29.87 in 10.0 mi South 9.2 mph - N/A   Mostly Cloudy
6:15 PM 39.2 °F 32.0 °F 37.4 °F 93% 29.87 in 10.0 mi South 11.5 mph - N/A   Mostly Cloudy
6:35 PM 39.2 °F 31.2 °F 37.4 °F 93% 29.86 in 10.0 mi South 13.8 mph - N/A   Mostly Cloudy
6:55 PM 39.2 °F 31.6 °F 37.4 °F 93% 29.86 in 10.0 mi South 12.7 mph 21.9 mph N/A   Mostly Cloudy
7:15 PM 39.2 °F 30.8 °F 37.4 °F 93% 29.85 in 10.0 mi South 15.0 mph - N/A   Overcast
7:35 PM 39.2 °F 31.2 °F 37.4 °F 93% 29.84 in 10.0 mi South 13.8 mph 23.0 mph N/A   Overcast
7:55 PM 39.2 °F 30.5 °F 37.4 °F 93% 29.83 in 10.0 mi South 16.1 mph 21.9 mph N/A   Overcast
8:15 PM 39.2 °F 29.8 °F 37.4 °F 93% 29.83 in 10.0 mi South 18.4 mph - N/A   Scattered Clouds
8:35 PM 39.2 °F 31.2 °F 37.4 °F 93% 29.83 in 10.0 mi South 13.8 mph 19.6 mph N/A   Mostly Cloudy
8:55 PM 39.2 °F 31.2 °F 37.4 °F 93% 29.82 in 10.0 mi South 13.8 mph - N/A   Overcast
9:15 PM 39.2 °F 30.8 °F 37.4 °F 93% 29.81 in 10.0 mi South 15.0 mph - N/A   Overcast
9:35 PM 39.2 °F 30.8 °F 37.4 °F 93% 29.81 in 10.0 mi South 15.0 mph - N/A   Overcast
9:55 PM 39.2 °F 30.5 °F 37.4 °F 93% 29.81 in 10.0 mi South 16.1 mph 23.0 mph N/A   Overcast
10:15 PM 39.2 °F 29.6 °F 37.4 °F 93% 29.80 in 10.0 mi South 19.6 mph - N/A   Overcast
10:35 PM 39.2 °F 30.5 °F 37.4 °F 93% 29.80 in 10.0 mi South 16.1 mph 21.9 mph N/A   Overcast
10:55 PM 39.2 °F 30.5 °F 37.4 °F 93% 29.79 in 10.0 mi South 16.1 mph 23.0 mph N/A   Overcast
11:15 PM 39.2 °F 30.8 °F 37.4 °F 93% 29.79 in 10.0 mi South 15.0 mph 21.9 mph N/A   Overcast
11:35 PM 39.2 °F 31.2 °F 37.4 °F 93% 29.78 in 10.0 mi South 13.8 mph - N/A   Overcast
11:55 PM 39.2 °F 30.8 °F 37.4 °F 93% 29.77 in 10.0 mi South 15.0 mph - N/A   Overcast